Change the Weather History Date:

Wednesday, April 23, 2014

  Actual Average (KWRI) Record (KWRI)
Temperature  
Mean Temperature 52 °F -  
Max Temperature 60 °F 63 °F 91 °F (2001)
Min Temperature 45 °F 41 °F 39 °F (2002)
Degree Days  
Heating Degree Days 12    
Growing Degree Days 2 (Base 50)    
Moisture  
Dew Point 33 °F    
Average Humidity 48    
Maximum Humidity 67    
Minimum Humidity 41    
Precipitation  
Precipitation 0.00 in - - ()
Sea Level Pressure  
Sea Level Pressure 29.70 in    
Wind  
Wind Speed 14 mph (WNW)    
Max Wind Speed 20 mph    
Max Gust Speed 33 mph    
Visibility 10 miles    
Events      
Averages and records for this station are not official NWS values.
T = Trace of Precipitation, MM = Missing Value Source: NWS Daily Summary

Daily Weather History Graph

Daily Weather History Graph

Search for Another Location

Airport or City:

Trip Planner

Search our weather history database for the weather conditions in past years. The results will help you decide how hot, cold, wet, or windy it might be!

Date:

Astronomy

Apr. 23, 2014 Rise Set
Actual Time 6:10 AM EDT 7:45 PM EDT
Civil Twilight 5:41 AM EDT 8:14 PM EDT
Nautical Twilight 5:07 AM EDT 8:49 PM EDT
Astronomical Twilight 4:30 AM EDT 9:26 PM EDT
Moon 2:39 AM EDT (4/23) 1:51 PM EDT (4/23)
Length of Visible Light 14h 33m
Length of Day
13h 35m
Waning Crescent, 35% of the Moon is Illuminated
Apr 23
Waning Crescent
Apr 29
New
May 6
First Quarter
May 14
Full
May 21
Last Quarter

Hourly Weather History & Observations

Time (EDT) Temp. Windchill Dew Point Humidity Pressure Visibility Wind Dir Wind Speed Gust Speed Precip Events Conditions
12:54 AM 57.9 °F - 46.9 °F 67% 29.57 in 10.0 mi West 10.4 mph - N/A   Mostly Cloudy
1:54 AM 57.9 °F - 37.0 °F 46% 29.58 in 10.0 mi West 13.8 mph 21.9 mph N/A   Overcast
2:54 AM 54.0 °F - 33.1 °F 45% 29.59 in 10.0 mi West 13.8 mph 26.5 mph N/A   Scattered Clouds
3:54 AM 50.0 °F - 33.1 °F 52% 29.61 in 10.0 mi WNW 13.8 mph 27.6 mph N/A   Clear
4:54 AM 48.9 °F - 32.0 °F 52% 29.62 in 10.0 mi WNW 11.5 mph 24.2 mph N/A   Clear
5:54 AM 48.9 °F - 32.0 °F 52% 29.63 in 10.0 mi WNW 11.5 mph 21.9 mph N/A   Clear
6:54 AM 48.9 °F - 33.1 °F 54% 29.65 in 10.0 mi WNW 10.4 mph 20.7 mph N/A   Clear
7:54 AM 50.0 °F - 33.1 °F 52% 29.66 in 10.0 mi WNW 17.3 mph 25.3 mph N/A   Clear
8:54 AM 50.0 °F - 33.1 °F 52% 29.67 in 10.0 mi West 15.0 mph 29.9 mph N/A   Overcast
9:54 AM 51.1 °F - 34.0 °F 52% 29.68 in 10.0 mi WNW 13.8 mph 24.2 mph N/A   Overcast
10:54 AM 51.1 °F - 33.1 °F 50% 29.69 in 10.0 mi NW 19.6 mph 29.9 mph N/A   Overcast
11:54 AM 54.0 °F - 34.0 °F 47% 29.68 in 10.0 mi WNW 13.8 mph 32.2 mph N/A   Mostly Cloudy
1:54 PM 55.9 °F - 34.0 °F 44% 29.67 in 10.0 mi NW 16.1 mph 33.4 mph N/A   Overcast
2:54 PM 57.0 °F - 34.0 °F 42% 29.68 in 10.0 mi WNW 12.7 mph 27.6 mph N/A   Overcast
4:54 PM 59.0 °F - 35.1 °F 41% 29.70 in 10.0 mi NNW 12.7 mph 27.6 mph N/A   Scattered Clouds
5:54 PM 57.9 °F - 34.0 °F 41% 29.72 in 10.0 mi NW 19.6 mph 29.9 mph N/A   Scattered Clouds
6:54 PM 55.9 °F - 33.1 °F 42% 29.74 in 10.0 mi NW 19.6 mph 28.8 mph N/A   Mostly Cloudy
7:54 PM 54.0 °F - 32.0 °F 43% 29.78 in 10.0 mi NW 16.1 mph 25.3 mph N/A   Overcast
8:54 PM 52.0 °F - 32.0 °F 47% 29.81 in 10.0 mi NNW 18.4 mph 26.5 mph N/A   Overcast
9:54 PM 48.0 °F - 28.0 °F 46% 29.87 in 10.0 mi NNW 16.1 mph 29.9 mph N/A   Clear
10:54 PM 46.0 °F 38.5 °F 25.0 °F 44% 29.91 in 10.0 mi NW 19.6 mph 33.4 mph N/A   Partly Cloudy
11:54 PM 45.0 °F 40.1 °F 24.1 °F 44% 29.91 in 10.0 mi WNW 9.2 mph 17.3 mph N/A   Clear